HAZ2147 ZSHC-ZSJN

Flight info

Callsign HAZ2147
Flight time 1h 19m
Altitude 32100
Route NIVIK5E NIVIK W135 DOGVI A470 DPX A593 ABTUB ABTUB6W
Aircraft A320/M-SDE3FGHIRWY/LB1

Departure

Time 2026-04-25 05:38
Airport Hangzhou Xiaoshan International Airport (ZSHC)

Arrival

Time 2026-04-25 06:57
Airport Jinan Yaoqiang International Airport (ZSJN)
Time Latitude Longitude Altitude Speed Heading
2026-04-25 05:20 30.23900 120.42368 32 ft 0 kts 83°
2026-04-25 05:28 30.23898 120.42355 32 ft 4 kts 83°
2026-04-25 05:29 30.23895 120.42324 32 ft 4 kts 83°
2026-04-25 05:29 30.23892 120.42298 32 ft 4 kts 74°
2026-04-25 05:29 30.23880 120.42273 30 ft 4 kts 32°
2026-04-25 05:29 30.23857 120.42267 31 ft 4 kts 344°
2026-04-25 05:30 30.23834 120.42277 31 ft 1 kts 333°
2026-04-25 05:32 30.23858 120.42263 31 ft 7 kts 333°
2026-04-25 05:32 30.23894 120.42243 31 ft 11 kts 333°
2026-04-25 05:32 30.23993 120.42180 31 ft 14 kts 315°
2026-04-25 05:33 30.23992 120.42104 30 ft 17 kts 242°
2026-04-25 05:33 30.23909 120.41914 32 ft 21 kts 242°
2026-04-25 05:33 30.23866 120.41796 32 ft 12 kts 278°
2026-04-25 05:33 30.23903 120.41753 31 ft 11 kts 329°
2026-04-25 05:34 30.23968 120.41713 32 ft 10 kts 327°
2026-04-25 05:34 30.23971 120.41636 31 ft 7 kts 220°
2026-04-25 05:34 30.23956 120.41588 32 ft 7 kts 251°
2026-04-25 05:34 30.23942 120.41542 32 ft 11 kts 247°
2026-04-25 05:35 30.23899 120.41442 32 ft 17 kts 243°
2026-04-25 05:35 30.23839 120.41306 32 ft 21 kts 243°
2026-04-25 05:35 30.23770 120.41150 32 ft 23 kts 243°
2026-04-25 05:35 30.23710 120.41014 32 ft 15 kts 243°
2026-04-25 05:36 30.23720 120.40906 33 ft 15 kts 328°
2026-04-25 05:36 30.23806 120.40864 34 ft 9 kts 347°
2026-04-25 05:36 30.23849 120.40896 34 ft 8 kts 61°
2026-04-25 05:36 30.23863 120.40927 34 ft 0 kts 63°
2026-04-25 05:37 30.23882 120.40969 34 ft 28 kts 63°
2026-04-25 05:37 30.24091 120.41457 31 ft 102 kts 63°
2026-04-25 05:37 30.24501 120.42388 31 ft 156 kts 64°
2026-04-25 05:37 30.24994 120.43591 508 ft 167 kts 63°
2026-04-25 05:38 30.25526 120.44784 1290 ft 166 kts 62°
2026-04-25 05:38 30.26063 120.45973 1973 ft 171 kts 62°
2026-04-25 05:38 30.26649 120.47267 2343 ft 193 kts 62°
2026-04-25 05:38 30.27300 120.48714 2741 ft 211 kts 62°
2026-04-25 05:39 30.27984 120.50245 3479 ft 215 kts 63°
2026-04-25 05:39 30.28676 120.51802 4276 ft 220 kts 62°
2026-04-25 05:39 30.29385 120.53399 5053 ft 225 kts 62°
2026-04-25 05:39 30.30105 120.55023 5856 ft 229 kts 63°
2026-04-25 05:40 30.30835 120.56668 6656 ft 231 kts 63°
2026-04-25 05:40 30.31574 120.58337 7406 ft 234 kts 63°
2026-04-25 05:40 30.32362 120.60020 7780 ft 239 kts 53°
2026-04-25 05:40 30.33583 120.61288 7872 ft 237 kts 26°
2026-04-25 05:41 30.35149 120.61784 7884 ft 233 kts 358°
2026-04-25 05:41 30.36719 120.61453 7883 ft 230 kts 333°
2026-04-25 05:41 30.37999 120.60394 7866 ft 227 kts 309°
2026-04-25 05:41 30.38765 120.58822 7867 ft 224 kts 284°
2026-04-25 05:42 30.38888 120.57037 7865 ft 224 kts 260°
2026-04-25 05:42 30.38374 120.55339 7866 ft 225 kts 242°
2026-04-25 05:42 30.37648 120.53738 7865 ft 225 kts 243°
2026-04-25 05:42 30.36923 120.52130 7864 ft 224 kts 243°
2026-04-25 05:43 30.36204 120.50529 7862 ft 224 kts 242°
2026-04-25 05:43 30.35485 120.48924 7864 ft 225 kts 243°
2026-04-25 05:43 30.34764 120.47310 7863 ft 225 kts 243°
2026-04-25 05:43 30.34026 120.45646 7866 ft 246 kts 243°
2026-04-25 05:44 30.33227 120.43833 7863 ft 252 kts 243°
2026-04-25 05:44 30.32431 120.42026 7862 ft 252 kts 243°
2026-04-25 05:44 30.31641 120.40239 7862 ft 253 kts 243°
2026-04-25 05:44 30.30840 120.38424 7862 ft 254 kts 243°
2026-04-25 05:45 30.30037 120.36607 7864 ft 254 kts 243°
2026-04-25 05:45 30.29232 120.34791 7863 ft 254 kts 243°
2026-04-25 05:45 30.28424 120.32969 7863 ft 254 kts 243°
2026-04-25 05:45 30.27617 120.31154 7863 ft 254 kts 243°
2026-04-25 05:46 30.26878 120.29303 7857 ft 254 kts 256°
2026-04-25 05:46 30.26871 120.27292 7861 ft 253 kts 287°
2026-04-25 05:46 30.27813 120.25530 7869 ft 271 kts 319°
2026-04-25 05:46 30.29446 120.24386 7866 ft 278 kts 332°
2026-04-25 05:47 30.31173 120.23369 7863 ft 279 kts 332°
2026-04-25 05:47 30.32913 120.22362 7865 ft 280 kts 333°
2026-04-25 05:47 30.34683 120.21426 7866 ft 280 kts 335°
2026-04-25 05:47 30.36478 120.20537 7866 ft 280 kts 336°
2026-04-25 05:48 30.38270 120.19666 7864 ft 280 kts 336°
2026-04-25 05:48 30.40069 120.18789 7864 ft 280 kts 336°
2026-04-25 05:48 30.41860 120.17906 7864 ft 280 kts 335°
2026-04-25 05:48 30.43650 120.17016 7865 ft 280 kts 335°
2026-04-25 05:49 30.45437 120.16125 7867 ft 280 kts 335°
2026-04-25 05:49 30.47224 120.15230 7865 ft 279 kts 335°
2026-04-25 05:49 30.48930 120.14170 7876 ft 280 kts 323°
2026-04-25 05:49 30.50516 120.12797 8579 ft 285 kts 322°
2026-04-25 05:50 30.52111 120.11439 9588 ft 286 kts 323°
2026-04-25 05:50 30.53739 120.10070 10335 ft 296 kts 323°
2026-04-25 05:50 30.55474 120.08615 10630 ft 321 kts 323°
2026-04-25 05:50 30.57354 120.07036 10876 ft 345 kts 323°
2026-04-25 05:51 30.59351 120.05352 11227 ft 362 kts 323°
2026-04-25 05:51 30.61406 120.03614 11903 ft 368 kts 323°
2026-04-25 05:51 30.63485 120.01854 12664 ft 372 kts 322°
2026-04-25 05:51 30.65585 120.00072 13417 ft 376 kts 322°
2026-04-25 05:52 30.67710 119.98270 14116 ft 380 kts 322°
2026-04-25 05:52 30.69850 119.96456 14770 ft 383 kts 322°
2026-04-25 05:52 30.72010 119.94625 15424 ft 386 kts 322°
2026-04-25 05:52 30.74186 119.92776 16055 ft 389 kts 322°
2026-04-25 05:53 30.76378 119.90912 16688 ft 392 kts 322°
2026-04-25 05:53 30.78587 119.89028 17249 ft 396 kts 322°
2026-04-25 05:53 30.80813 119.87123 17859 ft 399 kts 322°
2026-04-25 05:53 30.83055 119.85198 18442 ft 402 kts 321°
2026-04-25 05:54 30.85313 119.83255 18940 ft 405 kts 321°
2026-04-25 05:54 30.87586 119.81296 19454 ft 408 kts 322°
2026-04-25 05:54 30.92179 119.77344 20448 ft 413 kts 322°
2026-04-25 05:55 30.94501 119.75344 20943 ft 416 kts 322°
2026-04-25 05:55 30.96832 119.73334 21433 ft 419 kts 321°
2026-04-25 05:55 30.99182 119.71308 21919 ft 421 kts 321°
2026-04-25 05:55 31.01545 119.69269 22390 ft 424 kts 321°
2026-04-25 05:56 31.03925 119.67216 22839 ft 427 kts 321°
2026-04-25 05:56 31.06319 119.65147 23279 ft 429 kts 321°
2026-04-25 05:56 31.08726 119.63066 23709 ft 432 kts 321°
2026-04-25 05:56 31.11147 119.60972 24073 ft 435 kts 321°
2026-04-25 05:57 31.13552 119.58889 24441 ft 437 kts 321°
2026-04-25 05:57 31.15997 119.56768 24810 ft 439 kts 321°
2026-04-25 05:57 31.18456 119.54636 25162 ft 442 kts 321°
2026-04-25 05:57 31.20929 119.52490 25518 ft 444 kts 321°
2026-04-25 05:58 31.23417 119.50332 25839 ft 446 kts 321°
2026-04-25 05:58 31.25913 119.48164 26178 ft 448 kts 321°
2026-04-25 05:58 31.28420 119.45986 26503 ft 450 kts 321°
2026-04-25 05:58 31.30944 119.43794 26834 ft 453 kts 321°
2026-04-25 05:59 31.33478 119.41594 27136 ft 455 kts 321°
2026-04-25 05:59 31.36023 119.39381 27436 ft 457 kts 321°
2026-04-25 05:59 31.38577 119.37157 27765 ft 459 kts 321°
2026-04-25 05:59 31.41141 119.34924 28090 ft 460 kts 321°
2026-04-25 06:00 31.43706 119.32686 28500 ft 459 kts 321°
2026-04-25 06:00 31.46265 119.30449 28945 ft 458 kts 321°
2026-04-25 06:00 31.48815 119.28220 29378 ft 457 kts 321°
2026-04-25 06:00 31.51363 119.25991 29808 ft 456 kts 320°
2026-04-25 06:01 31.53903 119.23770 30240 ft 455 kts 321°
2026-04-25 06:01 31.56442 119.21551 30598 ft 454 kts 321°
2026-04-25 06:01 31.58962 119.19334 30967 ft 453 kts 320°
2026-04-25 06:01 31.61482 119.17101 31332 ft 452 kts 320°
2026-04-25 06:02 31.63984 119.14872 31690 ft 452 kts 320°
2026-04-25 06:02 31.66439 119.12583 32050 ft 450 kts 317°
2026-04-25 06:02 31.68818 119.10202 32168 ft 450 kts 316°
2026-04-25 06:02 31.71151 119.07762 32186 ft 449 kts 315°
2026-04-25 06:03 31.75796 119.02840 32183 ft 449 kts 316°
2026-04-25 06:03 31.80512 118.98022 32183 ft 451 kts 321°
2026-04-25 06:04 31.86076 118.94582 32186 ft 456 kts 337°
2026-04-25 06:04 31.92004 118.91958 32183 ft 455 kts 336°
2026-04-25 06:05 31.97914 118.89290 32174 ft 455 kts 336°
2026-04-25 06:05 32.03817 118.86623 32175 ft 454 kts 337°
2026-04-25 06:06 32.09676 118.83989 32172 ft 454 kts 337°
2026-04-25 06:06 32.15569 118.81335 32165 ft 453 kts 337°
2026-04-25 06:07 32.21457 118.78676 32158 ft 453 kts 337°
2026-04-25 06:07 32.27339 118.76015 32158 ft 453 kts 337°
2026-04-25 06:08 32.33221 118.73347 32156 ft 453 kts 337°
2026-04-25 06:08 32.39090 118.70686 32144 ft 453 kts 337°
2026-04-25 06:09 32.44981 118.68022 32153 ft 453 kts 337°
2026-04-25 06:09 32.50862 118.65349 32150 ft 453 kts 337°
2026-04-25 06:10 32.56831 118.62623 32170 ft 467 kts 337°
2026-04-25 06:10 32.62924 118.59839 32167 ft 470 kts 337°
2026-04-25 06:11 32.69056 118.57097 32165 ft 471 kts 339°
2026-04-25 06:11 32.75318 118.54772 32166 ft 472 kts 342°
2026-04-25 06:12 32.81644 118.52672 32163 ft 471 kts 342°
2026-04-25 06:12 32.87935 118.50524 32161 ft 470 kts 341°
2026-04-25 06:13 32.94193 118.48274 32164 ft 470 kts 341°
2026-04-25 06:14 33.03568 118.44872 32159 ft 470 kts 341°
2026-04-25 06:14 33.09823 118.42622 32159 ft 470 kts 341°
2026-04-25 06:15 33.16076 118.40372 32150 ft 469 kts 341°
2026-04-25 06:15 33.22329 118.38123 32142 ft 469 kts 341°
2026-04-25 06:16 33.28570 118.35878 32154 ft 469 kts 341°
2026-04-25 06:16 33.34795 118.33625 32152 ft 467 kts 341°
2026-04-25 06:17 33.41008 118.31387 32159 ft 466 kts 341°
2026-04-25 06:17 33.47215 118.29149 32147 ft 466 kts 341°
2026-04-25 06:18 33.53412 118.26903 32156 ft 466 kts 341°
2026-04-25 06:18 33.58568 118.25033 32158 ft 465 kts 340°
2026-04-25 06:19 33.65805 118.22408 32154 ft 465 kts 340°
2026-04-25 06:19 33.70944 118.20534 32150 ft 464 kts 340°
2026-04-25 06:20 33.78128 118.17911 32139 ft 465 kts 340°
2026-04-25 06:20 33.83309 118.16024 32157 ft 464 kts 340°
2026-04-25 06:21 33.89484 118.13787 32146 ft 463 kts 340°
2026-04-25 06:21 33.95650 118.11549 32147 ft 463 kts 340°
2026-04-25 06:22 34.01811 118.09299 32138 ft 462 kts 340°
2026-04-25 06:22 34.07924 118.07074 32155 ft 462 kts 341°
2026-04-25 06:23 34.14073 118.04843 32151 ft 461 kts 342°
2026-04-25 06:23 34.20208 118.02614 32156 ft 460 kts 342°
2026-04-25 06:24 34.26331 118.00382 32152 ft 459 kts 342°
2026-04-25 06:24 34.32445 117.98178 32157 ft 459 kts 342°
2026-04-25 06:25 34.38563 117.96004 32165 ft 458 kts 343°
2026-04-25 06:25 34.44668 117.93832 32164 ft 457 kts 343°
2026-04-25 06:26 34.50750 117.91665 32153 ft 456 kts 343°
2026-04-25 06:26 34.56831 117.89485 32153 ft 455 kts 343°
2026-04-25 06:27 34.62904 117.87298 32150 ft 455 kts 343°
2026-04-25 06:27 34.68960 117.85125 32142 ft 453 kts 343°
2026-04-25 06:28 34.75004 117.82946 32140 ft 453 kts 343°
2026-04-25 06:28 34.81041 117.80767 32140 ft 453 kts 343°
2026-04-25 06:29 34.87069 117.78584 32141 ft 450 kts 343°
2026-04-25 06:29 34.93062 117.76387 32143 ft 449 kts 343°
2026-04-25 06:30 34.99046 117.74196 32142 ft 449 kts 343°
2026-04-25 06:30 35.05024 117.71997 32141 ft 449 kts 343°
2026-04-25 06:31 35.11000 117.69800 32144 ft 447 kts 344°
2026-04-25 06:31 35.13943 117.68717 31737 ft 438 kts 344°
2026-04-25 06:31 35.16842 117.67652 31255 ft 433 kts 344°
2026-04-25 06:31 35.19726 117.66597 30882 ft 432 kts 344°
2026-04-25 06:32 35.22605 117.65544 30516 ft 433 kts 344°
2026-04-25 06:32 35.25453 117.64500 30156 ft 433 kts 344°
2026-04-25 06:32 35.28344 117.63438 29737 ft 434 kts 344°
2026-04-25 06:32 35.31243 117.62373 29314 ft 436 kts 343°
2026-04-25 06:33 35.34148 117.61304 28888 ft 437 kts 344°
2026-04-25 06:33 35.37062 117.60228 28473 ft 437 kts 344°
2026-04-25 06:33 35.39979 117.59147 28070 ft 439 kts 343°
2026-04-25 06:33 35.42906 117.58062 27672 ft 440 kts 343°
2026-04-25 06:34 35.45845 117.56974 27278 ft 442 kts 343°
2026-04-25 06:34 35.48794 117.55884 26889 ft 444 kts 343°
2026-04-25 06:34 35.51756 117.54789 26503 ft 445 kts 343°
2026-04-25 06:34 35.54730 117.53690 26117 ft 448 kts 343°
2026-04-25 06:35 35.57716 117.52584 25743 ft 449 kts 343°
2026-04-25 06:35 35.60715 117.51470 25374 ft 451 kts 342°
2026-04-25 06:35 35.63722 117.50348 25010 ft 453 kts 342°
2026-04-25 06:35 35.66741 117.49223 24650 ft 454 kts 342°
2026-04-25 06:36 35.69771 117.48095 24293 ft 456 kts 342°
2026-04-25 06:36 35.72813 117.46961 23934 ft 457 kts 342°
2026-04-25 06:36 35.75857 117.45832 23583 ft 456 kts 342°
2026-04-25 06:36 35.78888 117.44707 23175 ft 455 kts 342°
2026-04-25 06:37 35.81912 117.43579 22769 ft 453 kts 342°
2026-04-25 06:37 35.84917 117.42456 22365 ft 451 kts 342°
2026-04-25 06:37 35.87909 117.41338 21968 ft 448 kts 342°
2026-04-25 06:37 35.90886 117.40225 21575 ft 446 kts 342°
2026-04-25 06:38 35.93844 117.39117 21191 ft 444 kts 342°
2026-04-25 06:38 35.96793 117.38008 20807 ft 441 kts 342°
2026-04-25 06:38 35.99765 117.37128 20430 ft 439 kts 350°
2026-04-25 06:38 36.02788 117.36781 20057 ft 437 kts 358°
2026-04-25 06:39 36.05823 117.36784 19692 ft 435 kts 359°
2026-04-25 06:39 36.08837 117.36787 19328 ft 431 kts 359°
2026-04-25 06:39 36.11832 117.36783 18968 ft 430 kts 359°
2026-04-25 06:39 36.14826 117.36779 18614 ft 433 kts 359°
2026-04-25 06:40 36.17837 117.36781 18267 ft 429 kts 359°
2026-04-25 06:40 36.20804 117.36789 18032 ft 427 kts 359°
2026-04-25 06:40 36.23730 117.36796 17635 ft 432 kts 360°
2026-04-25 06:40 36.26763 117.36804 17228 ft 428 kts 360°
2026-04-25 06:41 36.29721 117.36808 16877 ft 421 kts 358°
2026-04-25 06:41 36.32623 117.36805 16686 ft 417 kts 359°
2026-04-25 06:41 36.35564 117.36808 16303 ft 424 kts 359°
2026-04-25 06:41 36.38434 117.36814 16143 ft 413 kts 359°
2026-04-25 06:42 36.41309 117.36813 15766 ft 413 kts 359°
2026-04-25 06:42 36.44229 117.36808 15388 ft 419 kts 360°
2026-04-25 06:42 36.47111 117.36811 15382 ft 409 kts 359°
2026-04-25 06:42 36.49975 117.36812 15059 ft 411 kts 359°
2026-04-25 06:43 36.52818 117.36808 14702 ft 417 kts 359°
2026-04-25 06:43 36.55707 117.36806 14333 ft 414 kts 359°
2026-04-25 06:43 36.58577 117.36805 13976 ft 412 kts 359°
2026-04-25 06:43 36.61437 117.36807 13600 ft 410 kts 360°
2026-04-25 06:44 36.64286 117.36814 13200 ft 409 kts 360°
2026-04-25 06:44 36.67125 117.36823 12807 ft 407 kts 360°
2026-04-25 06:44 36.69954 117.36833 12424 ft 406 kts 360°
2026-04-25 06:44 36.72766 117.36843 11942 ft 401 kts 359°
2026-04-25 06:45 36.75526 117.36849 11337 ft 395 kts 359°
2026-04-25 06:45 36.78212 117.36855 11199 ft 377 kts 359°
2026-04-25 06:45 36.80780 117.36864 11066 ft 361 kts 359°
2026-04-25 06:45 36.83204 117.36870 10946 ft 334 kts 359°
2026-04-25 06:46 36.85443 117.36874 10746 ft 312 kts 359°
2026-04-25 06:46 36.87598 117.36876 10446 ft 309 kts 358°
2026-04-25 06:46 36.89749 117.36875 10200 ft 308 kts 358°
2026-04-25 06:46 36.91879 117.36873 9969 ft 307 kts 358°
2026-04-25 06:47 36.93998 117.36871 9825 ft 303 kts 359°
2026-04-25 06:47 36.96106 117.36873 9692 ft 305 kts 359°
2026-04-25 06:47 36.98225 117.36876 9560 ft 304 kts 359°
2026-04-25 06:47 37.00344 117.36880 9421 ft 305 kts 358°
2026-04-25 06:48 37.02491 117.36882 8813 ft 314 kts 358°
2026-04-25 06:48 37.04657 117.36887 8476 ft 309 kts 358°
2026-04-25 06:48 37.06840 117.36893 7791 ft 316 kts 359°
2026-04-25 06:48 37.08953 117.36767 7556 ft 291 kts 344°
2026-04-25 06:49 37.10658 117.35716 7416 ft 261 kts 314°
2026-04-25 06:49 37.11672 117.33971 7024 ft 243 kts 285°
2026-04-25 06:49 37.11918 117.31943 6548 ft 233 kts 264°
2026-04-25 06:49 37.11905 117.29924 6095 ft 231 kts 265°
2026-04-25 06:50 37.11900 117.27922 5643 ft 229 kts 265°
2026-04-25 06:50 37.11764 117.25960 5202 ft 222 kts 251°
2026-04-25 06:50 37.11160 117.24198 4659 ft 220 kts 232°
2026-04-25 06:50 37.10152 117.22838 4373 ft 208 kts 216°
2026-04-25 06:51 37.08924 117.21979 4159 ft 198 kts 200°
2026-04-25 06:51 37.07602 117.21616 3916 ft 192 kts 185°
2026-04-25 06:51 37.06272 117.21606 3672 ft 190 kts 182°
2026-04-25 06:51 37.04979 117.21604 3464 ft 180 kts 183°
2026-04-25 06:52 37.03774 117.21604 3234 ft 167 kts 184°
2026-04-25 06:52 37.02681 117.21604 3009 ft 151 kts 184°
2026-04-25 06:52 37.01661 117.21604 2827 ft 139 kts 184°
2026-04-25 06:52 37.00711 117.21602 2632 ft 132 kts 186°
2026-04-25 06:53 36.99784 117.21602 2468 ft 132 kts 187°
2026-04-25 06:53 36.98861 117.21602 2291 ft 133 kts 184°
2026-04-25 06:53 36.97942 117.21601 2132 ft 132 kts 184°
2026-04-25 06:53 36.97030 117.21601 1951 ft 131 kts 186°
2026-04-25 06:54 36.96118 117.21601 1770 ft 131 kts 185°
2026-04-25 06:54 36.95209 117.21601 1593 ft 132 kts 184°
2026-04-25 06:54 36.94296 117.21601 1421 ft 130 kts 184°
2026-04-25 06:54 36.93387 117.21601 1264 ft 131 kts 184°
2026-04-25 06:55 36.92466 117.21601 1076 ft 130 kts 184°
2026-04-25 06:55 36.91578 117.21601 924 ft 129 kts 184°
2026-04-25 06:55 36.90676 117.21601 754 ft 130 kts 181°
2026-04-25 06:55 36.89770 117.21601 578 ft 132 kts 187°
2026-04-25 06:56 36.88859 117.21601 416 ft 129 kts 183°
2026-04-25 06:56 36.87966 117.21601 247 ft 130 kts 183°
2026-04-25 06:56 36.87066 117.21598 109 ft 127 kts 184°
2026-04-25 06:56 36.86261 117.21600 90 ft 105 kts 181°
2026-04-25 06:57 36.85679 117.21593 91 ft 60 kts 179°
2026-04-25 06:57 36.85433 117.21593 88 ft 16 kts 180°
2026-04-25 06:57 36.85311 117.21592 86 ft 19 kts 180°
2026-04-25 06:57 36.85174 117.21570 83 ft 20 kts 204°
2026-04-25 06:58 36.85052 117.21493 84 ft 20 kts 206°
2026-04-25 06:58 36.84945 117.21423 85 ft 17 kts 210°
2026-04-25 06:58 36.84858 117.21327 82 ft 17 kts 260°
2026-04-25 06:58 36.84844 117.21271 85 ft 4 kts 199°
2026-04-25 06:59 36.84809 117.21255 82 ft 6 kts 226°
2026-04-25 06:59 36.84820 117.21192 80 ft 8 kts 294°
2026-04-25 06:59 36.84816 117.21140 82 ft 7 kts 230°
2026-04-25 06:59 36.84787 117.21121 82 ft 3 kts 206°
2026-04-25 07:00 36.84768 117.21110 85 ft 0 kts 205°
2026-04-25 07:00 36.84767 117.21109 85 ft 0 kts 205°